EW9341 Weather Reports


time (UTC)temp
F
wind
direction
speed
knots
gust
knots
rain 1hr
in
rain 24hr
in
rain mn
in
humidity
%
barometer
mb
20260507095522 60 72 2.6 7.0 0.00 0.00 0.00 62 1016.0
20260507095016 59 122 3.5 8.7 0.00 0.00 0.00 62 1016.0
20260507094509 59 311 4.3 8.7 0.00 0.00 0.00 63 1015.9
20260507094012 59 344 3.5 8.7 0.00 0.00 0.00 65 1015.9
20260507093509 58 282 3.5 8.7 0.00 0.00 0.00 65 1015.8
20260507093241 58 11 3.5 7.0 0.00 0.00 0.00 65 1015.9
20260507092508 58 324 3.5 7.0 0.00 0.00 0.00 65 1015.9
20260507092011 58 5 3.5 8.7 0.00 0.00 0.00 65 1015.8
20260507091459 58 19 3.5 8.7 0.00 0.00 0.00 66 1015.8
20260507091232 58 344 3.5 7.0 0.00 0.00 0.00 65 1015.8
20260507090459 57 355 3.5 7.8 0.00 0.00 0.00 67 1015.7
20260507085959 57 25 3.5 7.8 0.00 0.00 0.00 67 1015.7
20260507085500 57 14 3.5 7.0 0.00 0.00 0.00 68 1015.6
20260507085002 57 64 3.5 7.8 0.00 0.00 0.00 68 1015.7
20260507084729 56 311 3.5 7.8 0.00 0.00 0.00 70 1015.6
20260507084000 56 331 3.5 8.7 0.00 0.00 0.00 71 1015.6
20260507083452 56 5 3.5 8.7 0.00 0.00 0.00 71 1015.7
20260507082950 56 296 3.5 7.8 0.00 0.00 0.00 71 1015.8
20260507082448 56 318 3.5 7.8 0.00 0.00 0.00 72 1015.7
20260507081947 55 315 3.5 7.8 0.00 0.00 0.00 73 1015.7
20260507081449 55 324 2.6 6.1 0.00 0.00 0.00 73 1015.7
20260507080947 55 15 2.6 7.0 0.00 0.00 0.00 73 1015.7
20260507080718 55 318 2.6 7.0 0.00 0.00 0.00 73 1015.6
20260507075947 55 115 2.6 5.2 0.00 0.00 0.00 72 1015.6
20260507075447 55 311 2.6 5.2 0.00 0.00 0.00 72 1015.5
20260507074945 55 61 3.5 5.2 0.00 0.00 0.00 72 1015.6
20260507074716 55 342 3.5 7.0 0.00 0.00 0.00 73 1015.6
20260507074217 55 35 2.6 7.0 0.00 0.00 0.00 71 1015.4
20260507073447 56 317 2.6 7.0 0.00 0.00 0.00 71 1015.4
20260507073217 55 13 2.6 7.0 0.00 0.00 0.00 72 1015.4
20260507072448 55 345 2.6 7.0 0.00 0.00 0.00 73 1015.4
20260507071945 55 313 2.6 7.0 0.00 0.00 0.00 74 1015.4
20260507071445 54 17 2.6 5.2 0.00 0.00 0.00 75 1015.4
20260507070945 54 0 2.6 4.3 0.00 0.00 0.00 77 1015.4
20260507070717 53 21 2.6 5.2 0.00 0.00 0.00 78 1015.4
20260507070217 53 325 2.6 5.2 0.00 0.00 0.00 80 1015.4
20260507065447 52 321 2.6 6.1 0.00 0.00 0.00 80 1015.4
20260507064945 51 348 1.7 6.1 0.00 0.00 0.00 82 1015.4
20260507064447 50 355 1.7 5.2 0.00 0.00 0.00 83 1015.3
20260507063945 49 16 2.6 5.2 0.00 0.00 0.00 85 1015.2
20260507063716 49 342 3.5 5.2 0.00 0.00 0.00 86 1015.2
20260507062945 48 355 2.6 5.2 0.00 0.00 0.00 86 1015.3
20260507062446 48 26 2.6 4.3 0.00 0.00 0.00 87 1015.3
20260507061944 47 310 1.7 4.3 0.00 0.00 0.00 88 1015.2
20260507061716 47 317 1.7 4.3 0.00 0.00 0.00 88 1015.2
20260507060945 47 34 1.7 4.3 0.00 0.00 0.00 88 1015.1
20260507060445 47 304 2.6 6.1 0.00 0.00 0.00 88 1015.2
20260507055945 46 329 1.7 6.1 0.00 0.00 0.00 89 1015.1
20260507055447 46 344 2.6 4.3 0.00 0.00 0.00 89 1015.0
20260507055215 46 333 1.7 4.3 0.00 0.00 0.00 89 1015.0
20260507054445 46 313 0.9 3.5 0.00 0.00 0.00 89 1015.0
20260507053943 45 292 1.7 3.5 0.00 0.00 0.00 89 1014.9
20260507053443 45 340 1.7 3.5 0.00 0.00 0.00 89 1015.0
20260507052942 45 350 1.7 3.5 0.00 0.00 0.00 89 1014.9
20260507052442 45 346 1.7 3.5 0.00 0.00 0.00 90 1014.9
20260507051946 44 300 2.6 4.3 0.00 0.00 0.00 90 1014.8
20260507051439 44 308 2.6 4.3 0.00 0.00 0.00 90 1014.9
20260507050941 44 348 2.6 4.3 0.00 0.00 0.00 90 1014.7
20260507050439 44 345 1.7 4.3 0.00 0.00 0.00 90 1014.6
20260507045940 44 339 1.7 2.6 0.00 0.00 0.00 90 1014.6
20260507045437 44 344 0.9 3.5 0.00 0.00 0.00 90 1014.6
20260507044937 43 0 0.0 3.5 0.00 0.00 0.00 90 1014.4
20260507044708 43 339 0.0 0.0 0.00 0.00 0.00 90 1014.5
20260507044209 43 355 0.9 2.6 0.00 0.00 0.00 90 1014.4
20260507043437 43 355 0.9 2.6 0.00 0.00 0.00 89 1014.4
20260507042936 43 319 1.7 2.6 0.00 0.00 0.00 89 1014.4
20260507042437 43 316 0.9 2.6 0.00 0.00 0.00 89 1014.3
20260507041437 44 309 0.9 1.7 0.00 0.00 0.00 89 1014.3
20260507040937 44 309 0.9 2.6 0.00 0.00 0.00 89 1014.3
20260507040437 44 323 1.7 2.6 0.00 0.00 0.00 89 1014.2
20260507035936 44 315 1.7 2.6 0.00 0.00 0.00 88 1014.2
20260507035437 44 317 1.7 2.6 0.00 0.00 0.00 88 1014.2
20260507034938 44 318 1.7 2.6 0.00 0.00 0.00 88 1014.1
20260507034438 44 335 1.7 2.6 0.00 0.00 0.00 88 1014.1
20260507033934 44 321 1.7 3.5 0.00 0.00 0.00 88 1014.2
20260507033435 44 330 1.7 3.5 0.00 0.00 0.00 87 1014.1
20260507032934 44 322 1.7 2.6 0.00 0.00 0.00 87 1014.1
20260507032433 45 316 1.7 2.6 0.00 0.00 0.00 87 1014.1
20260507031932 45 330 1.7 2.6 0.00 0.00 0.00 86 1014.1
20260507031434 45 334 0.9 2.6 0.00 0.00 0.00 86 1014.0
20260507030935 45 320 0.0 2.6 0.00 0.00 0.00 86 1014.0
20260507030434 45 306 0.0 0.0 0.00 0.00 0.00 85 1014.0
20260507025932 45 337 0.9 2.6 0.00 0.00 0.00 85 1014.0
20260507025702 46 333 1.7 3.5 0.00 0.00 0.00 84 1013.9
20260507024929 46 321 1.7 3.5 0.00 0.00 0.00 84 1013.9
20260507024701 46 325 1.7 2.6 0.00 0.00 0.00 84 1014.0
20260507023930 46 312 0.9 2.6 0.00 0.00 0.00 83 1013.9
20260507023430 46 325 0.9 2.6 0.00 0.00 0.00 83 1013.9
20260507022926 46 5 0.9 3.5 0.00 0.00 0.00 83 1013.9
20260507022428 47 355 1.7 3.5 0.00 0.00 0.00 83 1013.9
20260507022211 47 306 2.6 4.3 0.00 0.00 0.00 83 1013.8
20260507021422 47 338 2.6 4.3 0.00 0.00 0.00 83 1013.7
20260507021151 47 5 1.7 5.2 0.00 0.00 0.00 84 1013.7
20260507020420 47 304 1.7 5.2 0.00 0.00 0.00 85 1013.6
20260507015918 47 343 1.7 3.5 0.00 0.00 0.00 85 1013.8
20260507015416 47 320 1.7 3.5 0.00 0.00 0.00 86 1013.6
20260507015145 47 344 1.7 3.5 0.00 0.00 0.00 86 1013.6
20260507014417 47 9 1.7 3.5 0.00 0.00 0.00 86 1013.6
20260507013912 47 355 1.7 4.3 0.00 0.00 0.00 86 1013.5
20260507013412 47 341 1.7 4.3 0.00 0.00 0.00 86 1013.5
20260507012911 47 5 1.7 3.5 0.00 0.00 0.00 85 1013.6
20260507012422 47 326 1.7 3.5 0.00 0.00 0.00 85 1013.5
20260507011909 48 346 1.7 3.5 0.00 0.00 0.00 85 1013.5
20260507011416 48 355 2.6 3.5 0.00 0.00 0.00 85 1013.5
20260507010903 48 344 1.7 3.5 0.00 0.00 0.00 84 1013.4
20260507010402 48 0 2.6 3.5 0.00 0.00 0.00 85 1013.2
20260507005900 48 330 2.6 3.5 0.00 0.00 0.00 84 1013.3
20260507005402 49 333 1.7 3.5 0.00 0.00 0.00 84 1013.3
20260507005132 49 10 2.6 4.3 0.00 0.00 0.00 84 1013.2
20260507004400 49 355 2.6 4.3 0.00 0.00 0.00 84 1013.2
20260507003858 49 330 1.7 4.3 0.00 0.00 0.00 84 1013.2
20260507003358 49 319 1.7 3.5 0.00 0.00 0.00 83 1013.1
20260507002901 49 5 2.6 3.5 0.00 0.00 0.00 83 1013.1
20260507002358 49 348 2.6 3.5 0.00 0.00 0.00 82 1013.1
20260507001859 49 5 1.7 3.5 0.00 0.00 0.00 82 1013.0
20260507001358 49 5 1.7 3.5 0.00 0.00 0.00 82 1013.1
20260507000858 49 338 1.7 3.5 0.00 0.00 0.00 82 1013.0
20260507000405 50 355 1.7 3.5 0.00 0.00 0.00 82 1013.1
20260506235852 50 16 1.7 4.3 0.00 0.00 0.00 81 1013.0
20260506235352 50 328 2.6 4.3 0.00 0.00 0.00 81 1013.0
20260506234851 50 355 2.6 4.3 0.00 0.00 0.00 81 1013.0
20260506234352 50 331 2.6 4.3 0.00 0.00 0.00 81 1013.0
20260506234122 50 348 2.6 4.3 0.00 0.00 0.00 81 1012.9
20260506233350 50 10 2.6 5.2 0.00 0.00 0.00 81 1012.8
20260506232852 50 15 1.7 5.2 0.00 0.00 0.00 80 1012.8
20260506232348 51 339 1.7 4.3 0.00 0.00 0.00 79 1012.8
20260506231848 51 351 1.7 4.3 0.00 0.00 0.00 79 1012.7
20260506231346 51 347 1.7 3.5 0.00 0.00 0.00 78 1012.8
20260506230846 51 0 1.7 4.3 0.00 0.00 0.00 78 1012.8
20260506230346 51 343 2.6 4.3 0.00 0.00 0.00 77 1012.7
20260506225845 51 5 2.6 4.3 0.00 0.00 0.00 77 1012.7
20260506225341 51 355 2.6 5.2 0.00 0.00 0.00 77 1012.6
20260506224834 51 9 2.6 5.2 0.00 0.00 0.00 77 1012.5
20260506224334 51 317 2.6 4.3 0.00 0.00 0.00 77 1012.5
20260506223835 51 346 2.6 4.3 0.00 0.00 0.00 77 1012.6
20260506223334 51 337 2.6 4.3 0.00 0.00 0.00 77 1012.5
20260506222847 51 14 2.6 4.3 0.00 0.00 0.00 77 1012.6
20260506222334 52 319 2.6 4.3 0.00 0.00 0.00 76 1012.6
20260506221835 52 308 3.5 7.0 0.00 0.00 0.00 76 1012.6
20260506221334 52 36 3.5 7.0 0.00 0.00 0.00 76 1012.6
20260506220833 52 26 3.5 7.0 0.00 0.00 0.00 78 1012.5
20260506220332 52 355 3.5 7.0 0.00 0.00 0.00 78 1012.5
20260506220104 52 336 2.6 5.2 0.00 0.00 0.00 79 1012.5
20260506215332 52 340 2.6 4.3 0.00 0.00 0.00 79 1012.3
20260506214828 52 346 2.6 4.3 0.00 0.00 0.00 79 1012.4
20260506214329 52 349 2.6 6.1 0.00 0.00 0.00 79 1012.4
20260506214057 52 15 2.6 6.1 0.00 0.00 0.00 79 1012.4
20260506213326 52 324 2.6 4.3 0.00 0.00 0.00 79 1012.3
20260506212826 52 342 2.6 5.2 0.00 0.00 0.00 79 1012.3
20260506212329 52 325 2.6 5.2 0.00 0.00 0.00 79 1012.2
20260506211826 52 313 1.7 4.3 0.00 0.00 0.00 78 1012.2
20260506211325 52 319 2.6 4.3 0.00 0.00 0.00 78 1012.1
20260506210826 53 326 2.6 4.3 0.00 0.00 0.00 78 1012.1
20260506210329 53 355 2.6 4.3 0.00 0.00 0.00 77 1012.1
20260506205823 53 331 2.6 6.1 0.00 0.00 0.00 77 1012.1
20260506205323 53 336 2.6 6.1 0.00 0.00 0.00 76 1012.1
20260506204823 53 322 2.6 5.2 0.00 0.00 0.00 75 1012.1
20260506204323 53 331 2.6 5.2 0.00 0.00 0.00 75 1012.0
20260506203312 53 19 3.5 7.0 0.00 0.00 0.00 73 1012.0
20260506202811 53 10 3.5 7.0 0.00 0.00 0.00 72 1012.0
20260506202309 53 346 2.6 5.2 0.00 0.00 0.00 72 1011.9
20260506201542 53 10 1.7 4.3 0.00 0.00 0.00 72 1011.8
20260506200810 53 296 1.7 2.6 0.00 0.00 0.00 72 1011.8
20260506200310 54 309 1.7 2.6 0.00 0.00 0.00 71 1011.8
20260506195810 54 309 0.9 3.5 0.00 0.00 0.00 70 1011.8
20260506195311 54 311 0.0 3.5 0.00 0.00 0.00 69 1011.7
20260506194809 54 313 0.0 0.0 0.00 0.00 0.00 69 1011.6
20260506194311 54 355 0.0 0.0 0.00 0.00 0.00 67 1011.6
20260506193306 54 333 1.7 4.3 0.00 0.00 0.00 67 1011.7
20260506192807 54 26 1.7 4.3 0.00 0.00 0.00 68 1011.7
20260506191808 54 34 0.9 2.6 0.00 0.00 0.00 67 1011.5
20260506191531 54 35 0.9 2.6 0.00 0.00 0.00 67 1011.5
20260506190801 54 355 0.9 3.5 0.00 0.00 0.00 67 1011.3
20260506190301 54 19 0.9 3.5 0.00 0.00 0.00 67 1011.3
20260506185801 54 37 0.0 2.6 0.00 0.00 0.00 67 1011.1
20260506185531 54 5 0.9 2.6 0.00 0.00 0.00 67 1011.2
20260506184801 54 0 0.9 2.6 0.00 0.00 0.00 66 1011.1
20260506184302 54 65 1.7 2.6 0.00 0.00 0.00 66 1011.0
20260506183801 54 44 1.7 3.5 0.00 0.00 0.00 66 1010.9
20260506183301 54 74 1.7 3.5 0.00 0.00 0.00 65 1010.9
20260506182255 54 55 0.9 2.6 0.00 0.00 0.00 65 1010.8
20260506181754 55 58 0.9 2.6 0.00 0.00 0.00 65 1010.7
20260506181254 55 101 0.9 2.6 0.00 0.00 0.00 64 1010.7
20260506180750 55 64 0.9 2.6 0.00 0.00 0.00 64 1010.6
20260506180251 55 76 0.9 2.6 0.00 0.00 0.00 64 1010.6
20260506175750 55 81 0.9 2.6 0.00 0.00 0.00 63 1010.6
20260506175251 55 69 1.7 4.3 0.00 0.00 0.00 64 1010.4
20260506174747 55 55 1.7 4.3 0.00 0.00 0.00 63 1010.4
20260506174247 55 49 1.7 6.1 0.00 0.00 0.00 63 1010.4
20260506173749 55 58 2.6 6.1 0.00 0.00 0.00 63 1010.3
20260506173247 55 90 1.7 6.1 0.00 0.00 0.00 63 1010.2
20260506172747 55 61 1.7 6.1 0.00 0.00 0.00 62 1010.2
20260506172248 55 103 1.7 6.1 0.00 0.00 0.00 62 1010.1
20260506171740 55 76 2.6 6.1 0.00 0.00 0.00 62 1010.0
20260506171239 55 61 2.6 7.0 0.00 0.00 0.00 62 1010.1
20260506170740 55 71 2.6 7.0 0.00 0.00 0.00 62 1010.0
20260506170238 55 95 2.6 7.0 0.00 0.00 0.00 62 1010.0
20260506165737 55 93 2.6 7.0 0.00 0.00 0.00 62 1010.0
20260506165238 55 99 3.5 7.8 0.00 0.00 0.00 62 1010.0
20260506164736 55 81 3.5 7.8 0.00 0.00 0.00 62 1010.0
20260506164239 55 93 3.5 8.7 0.00 0.00 0.00 62 1010.0
20260506163737 55 136 4.3 8.7 0.00 0.00 0.00 62 1010.1
20260506163508 56 17 5.2 9.6 0.00 0.00 0.00 61 1010.1
20260506162738 56 67 4.3 9.6 0.00 0.00 0.00 61 1010.1
20260506162237 56 99 4.3 10.4 0.00 0.00 0.00 61 1010.1
20260506161737 56 70 4.3 10.4 0.00 0.00 0.00 61 1010.0
20260506161237 56 80 5.2 10.4 0.00 0.00 0.00 60 1010.1
20260506160737 56 96 4.3 10.4 0.00 0.00 0.00 60 1010.1
20260506160237 56 96 3.5 10.4 0.00 0.00 0.00 60 1010.1
20260506155734 56 73 4.3 8.7 0.00 0.00 0.00 60 1010.1
20260506155233 56 50 4.3 8.7 0.00 0.00 0.00 59 1010.1
20260506154732 56 38 3.5 9.6 0.00 0.00 0.00 60 1010.0
20260506154233 56 66 3.5 9.6 0.00 0.00 0.00 60 1010.0
20260506153733 56 84 3.5 10.4 0.00 0.00 0.00 61 1010.1
20260506153232 55 36 4.3 10.4 0.00 0.00 0.00 60 1010.0
20260506152734 55 97 5.2 9.6 0.00 0.00 0.00 60 1010.0
20260506152233 55 59 6.1 10.4 0.00 0.00 0.00 59 1010.0
20260506151733 55 339 5.2 10.4 0.00 0.00 0.00 60 1009.9
20260506151232 55 28 5.2 10.4 0.00 0.00 0.00 61 1010.0
20260506150735 55 104 4.3 10.4 0.00 0.00 0.00 61 1009.9
20260506150229 55 20 4.3 10.4 0.00 0.00 0.00 61 1009.9
20260506145727 56 72 5.2 10.4 0.00 0.00 0.00 60 1009.9
20260506145457 56 84 5.2 10.4 0.00 0.00 0.00 61 1009.9
20260506144500 56 98 5.2 12.2 0.00 0.00 0.00 61 1009.9
20260506143728 56 64 6.1 12.2 0.00 0.00 0.00 60 1009.9
20260506143227 56 65 6.1 13.9 0.00 0.00 0.00 59 1009.8
20260506142724 56 35 7.0 13.9 0.00 0.00 0.00 59 1009.8
20260506142225 56 73 7.8 13.9 0.00 0.00 0.00 58 1009.8
20260506141724 57 55 7.0 14.8 0.00 0.00 0.00 57 1009.7
20260506141456 57 338 6.1 14.8 0.00 0.00 0.00 58 1009.8
20260506140724 57 13 7.0 13.0 0.00 0.00 0.00 57 1009.7
20260506140222 57 53 7.0 13.0 0.00 0.00 0.00 56 1009.8
20260506135722 57 86 6.1 13.9 0.00 0.00 0.00 56 1009.7
20260506135222 57 69 6.1 13.9 0.00 0.00 0.00 56 1009.7
20260506134720 57 80 6.1 13.9 0.00 0.00 0.00 54 1009.6
20260506134222 57 81 6.1 13.9 0.00 0.00 0.00 54 1009.6
20260506133721 58 51 6.1 13.9 0.00 0.00 0.00 54 1009.5
20260506133221 58 64 5.2 13.9 0.00 0.00 0.00 54 1009.4
20260506132722 58 19 5.2 13.0 0.00 0.00 0.00 55 1009.5
20260506132222 58 27 6.1 13.0 0.00 0.00 0.00 53 1009.5
20260506131721 58 10 4.3 11.3 0.00 0.00 0.00 55 1009.4
20260506131220 58 355 3.5 9.6 0.00 0.00 0.00 57 1009.4
20260506130721 58 13 3.5 10.4 0.00 0.00 0.00 59 1009.4
20260506130452 57 311 4.3 10.4 0.00 0.00 0.00 60 1009.3
20260506125714 57 332 5.2 10.4 0.00 0.00 0.00 60 1009.2
20260506125207 57 74 5.2 10.4 0.00 0.00 0.00 60 1009.4
20260506124707 56 315 5.2 10.4 0.00 0.00 0.00 65 1009.3
20260506124208 56 317 5.2 10.4 0.00 0.00 0.00 66 1009.1
20260506123707 56 320 4.3 8.7 0.00 0.00 0.00 67 1009.2
20260506123207 56 307 4.3 8.7 0.00 0.00 0.00 68 1009.2
20260506122708 55 344 4.3 8.7 0.00 0.00 0.00 68 1009.1
20260506122207 56 15 4.3 8.7 0.00 0.00 0.00 68 1009.1
20260506121708 56 323 5.2 9.6 0.00 0.00 0.00 69 1009.2
20260506121202 56 5 5.2 9.6 0.00 0.00 0.00 69 1009.1
20260506120935 56 336 5.2 11.3 0.00 0.00 0.00 70 1009.1
20260506120204 56 350 5.2 11.3 0.00 0.00 0.00 70 1009.1
20260506115702 56 339 5.2 10.4 0.00 0.00 0.00 71 1009.0
20260506115156 56 355 6.1 10.4 0.00 0.00 0.00 71 1009.0
20260506114415 56 313 7.0 12.2 0.00 0.00 0.00 70 1009.1
20260506113644 56 306 7.0 12.2 0.00 0.00 0.00 70 1009.1
20260506113417 56 332 7.0 12.2 0.00 0.00 0.00 71 1009.1
20260506112647 56 5 6.1 11.3 0.00 0.00 0.00 71 1009.1
20260506112144 57 336 5.2 10.4 0.00 0.00 0.00 69 1009.1
20260506111645 57 347 5.2 10.4 0.00 0.00 0.00 69 1009.1
20260506111159 57 328 6.1 11.3 0.00 0.00 0.00 70 1009.0
20260506110644 58 329 7.0 11.3 0.00 0.00 0.00 67 1009.0
20260506110144 58 5 7.0 13.9 0.00 0.00 0.00 66 1008.9
20260506105644 58 344 7.8 13.9 0.00 0.00 0.00 66 1009.0
20260506105147 59 350 7.0 13.0 0.00 0.00 0.00 62 1008.9
20260506104643 60 331 6.1 12.2 0.00 0.00 0.00 60 1008.9
20260506104145 60 34 6.1 10.4 0.00 0.00 0.00 59 1008.8
20260506103640 60 333 6.1 13.9 0.00 0.00 0.00 54 1008.8
20260506103140 60 323 7.0 15.6 0.00 0.00 0.00 54 1008.8
20260506102911 60 5 7.0 15.6 0.00 0.00 0.00 55 1008.8
20260506102140 60 22 7.0 13.0 0.00 0.00 0.00 57 1008.7
20260506101640 60 90 7.8 12.2 0.00 0.00 0.00 57 1008.8
20260506101142 60 63 7.0 12.2 0.00 0.00 0.00 57 1008.8
20260506100640 60 21 6.1 12.2 0.00 0.00 0.00 60 1008.8
20260506100154 59 311 6.1 13.0 0.00 0.00 0.00 61 1008.7
20260506095910 60 351 6.1 13.0 0.00 0.00 0.00 60 1008.6